Showing default

QIANFAN-23, 61556

Orbit data source: Space-Track

QIANFAN-23, 61556 is a Chinese payload satellite in LEO that was launched on Tue, 15 Oct 2024 UTC via a CHANG ZHENG 6A launch vehicle from the Taiyaun Space Center, China (TSC). Payload-class satellites include a variety of spacecraft equipped with specific instruments for various scientific and technological missions. These include communications satellites like Starlink; space stations such as the ISS; scientific satellites like the Hubble; Earth observation satellites from companies like Planet Labs, Umbra, and HawkEye 360; GPS; miniature CubeSats for education and research; and military/defense satellites.

Loading next visibility...
Identifier
61556, 2024-185E
Orbit
LEO
Country
Flag of CNCN / PRC
Related business
Manufacturer
GESIH/SECM
Mission
Partially operational Commercial Communications
Bus & Motor
QIANFAN, Unknown motor
Mass
267 kg wet, ~267 kg dry
Launch date (UTC)
2024-10-15 (2 years ago)
Launch vehicle
CHANG ZHENG 6A
Launch site
Taiyaun Space Center, China (TSC)
Object type
Payload
Rocket body
Debris
Shape & HBR
Box + 1 Pan, 5.0 m
Radar Cross Section
13.200 m², Large (>1 m²)

Expand to show TLE details & history
Last TLE update: 14 hours ago

TLE from 14 hours ago
0 QIANFAN-23
1 61556U 24185E   26235.59815567  .00000306  00000-0  14638-3 0  9991
2 61556  88.9808  48.5420 0006318 200.9332 159.1598 14.16538278105689
Epoch: 2026-08-23T14:21Z
TLE epoch observation values (Epoch: 2026-08-23T14:21:20.649Z)
Latitude
-0.00009°
Longitude
-138.68595°
Altitude
844.394 km
Speed
7.428 km/s
True Right ascension
03h 14m 10s
True Declination
0° 00' 00"
Sunlit
Object was in daylight at epoch
Visualization orbit readout
Latitude
Unknown
Longitude
Unknown
Altitude
Unknown
Speed
Unknown
Apparent Right ascension
Unknown
Apparent Declination
Unknown
Sunlit
N/A
Visualization observer readout
Local Sidereal Time
19:00:51
Azimuth
Unknown
Elevation
Unknown
Doppler factor
Unknown
Orbital elements
Apogee altitude
838.597 km
Perigee altitude
829.484 km
Semi-major axis
7,212.177 km
Eccentricity
0.00063
Inclination
88.9808°
RAAN
48.542°
Arg. of periapsis
200.9332°
True anomaly
159.18554°
Mean anomaly
159.1598°
Eccentric anomaly
159.17267°
Mean motion
3.54359 °/min
Orbital period
101.59 mins
BSTAR
0.00014638
Loading maneuver chart data...
Computing Atmospheric mass density...
Loading historical data...
Loading historical data...
Loading historical data...
Loading historical data...
Loading historical data...
Loading historical data...
Loading historical data...

Documentation

Showing up to 5 results
|